This demonstration page uses our WeatherBlox Daily Observations layout. Learn more.

Hourly Observations for July 6, 2018

Temp ( °F °C ) Dew Point ( °F °C ) Humidity (%) Winds ( mph kmh ) Pressure ( in mb ) Visibility ( mi km ) Precip ( " mm )
12:15 am 00:15 Clear 68 19.9 67 19.6 98 98 E 5 7 30.39 1029 10 16.0934 0 0
12:35 am 00:35 Partly Cloudy 67 19.6 67 19.5 99 99 E 3 6 30.39 1029 10 16.0934 0 0
12:55 am 00:55 Clear 67 19.7 67 19.6 99 99 Calm 30.39 1029 10 16.0934 0 0
1:15 am 01:15 Clear 67 19.2 67 19.2 100 100 Calm 30.39 1029 7 11.26538 0 0
1:35 am 01:35 Clear 65 18.5 65 18.5 100 100 Calm 30.39 1029 7 11.26538 0 0
1:55 am 01:55 Mostly Cloudy with Mist and Fog 65 18.5 65 18.5 100 100 NE 5 7 30.39 1029 1.75 2.816345 0 0
2:15 am 02:15 Clear with Mist and Fog 65 18.2 65 18.2 100 100 NNE 3 6 30.39 1029 2 3.21868 0 0
2:35 am 02:35 Partly Cloudy with Mist and Fog 66 18.8 66 18.8 100 100 N 5 7 30.39 1029 1.5 2.41401 0 0
2:55 am 02:55 Mostly Cloudy with Mist and Fog 65 18.3 65 18.3 100 100 N 6 9 30.39 1029 1.75 2.816345 0 0
3:15 am 03:15 Clear with Mist and Fog 65 18.3 65 18.3 100 100 NNE 5 7 30.39 1029 2.5 4.02335 0 0
3:35 am 03:35 Clear with Mist and Fog 65 18.5 65 18.5 100 100 NE 5 7 30.39 1029 2.5 4.02335 0 0
3:55 am 03:55 Clear with Mist and Fog 65 18.2 65 18.2 100 100 ENE 5 7 30.39 1029 2.5 4.02335 0 0
4:15 am 04:15 Cloudy with Fog 66 18.7 66 18.7 100 100 ENE 5 7 30.39 1029 0.5 0.80467 0 0
4:35 am 04:35 Cloudy with Mist and Fog 66 18.8 66 18.8 100 100 ENE 6 9 30.39 1029 0.75 1.207005 0 0
4:55 am 04:55 Mostly Cloudy with Mist and Fog 66 19 66 19 100 100 ENE 5 7 30.39 1029 1.75 2.816345 0 0
5:15 am 05:15 Cloudy with Fog 66 19 66 19 100 100 E 6 9 30.39 1029 0.5 0.80467 0 0
5:35 am 05:35 Cloudy with Mist and Fog 66 19 66 19 100 100 E 5 7 30.39 1029 1.75 2.816345 0 0
5:55 am 05:55 Cloudy with Mist and Fog 66 19.1 66 19.1 100 100 E 3 6 30.39 1029 2 3.21868 0 0
6:15 am 06:15 Cloudy with Mist and Fog 67 19.3 67 19.3 100 100 E 3 6 30.39 1029 3 4.82802 0 0
6:35 am 06:35 Cloudy with Mist and Fog 67 19.2 67 19.2 100 100 ESE 3 6 30.39 1029 2 3.21868 0 0
6:55 am 06:55 Cloudy with Mist and Fog 68 20 68 20 100 100 SE 7 11 30.39 1029 2.5 4.02335 0 0
7:15 am 07:15 Cloudy with Mist and Fog 68 20.2 68 20.2 100 100 SE 8 13 30.36 1028 1 1.60934 0 0
7:35 am 07:35 Cloudy with Mist and Fog 68 20.1 68 20.1 100 100 ESE 9 15 30.39 1029 1 1.60934 0 0
7:55 am 07:55 Cloudy with Mist and Fog 69 20.3 69 20.3 100 100 ESE 9 15 30.36 1028 2 3.21868 0 0
8:15 am 08:15 Cloudy with Mist and Fog 68 20.2 68 20.2 100 100 ESE 9 15 30.36 1028 5 8.0467 0 0
8:35 am 08:35 Cloudy 69 20.8 69 20.5 98 98 ESE 9 15 30.36 1028 7 11.26538 0 0
8:55 am 08:55 Cloudy 70 21.1 68 20 93 93 ESE 10 17 30.36 1028 10 16.0934 0 0
9:15 am 09:15 Cloudy 71 21.5 67 19.7 90 90 ESE 9 15 30.36 1028 10 16.0934 0 0
9:35 am 09:35 Mostly Cloudy 72 22 67 19.4 85 85 ESE 9 15 30.39 1029 10 16.0934 0 0
9:55 am 09:55 Mostly Cloudy 72 22.2 67 19.4 84 84 ESE 8 13 30.39 1029 10 16.0934 0 0
10:15 am 10:15 Cloudy 72 22.2 67 19.2 83 83 ESE 10 17 30.39 1029 10 16.0934 0 0
10:35 am 10:35 Mostly Cloudy 73 22.9 67 19.4 81 81 ESE 8 13 30.39 1029 10 16.0934 0 0
10:55 am 10:55 Partly Cloudy 74 23.5 68 19.9 80 80 ESE 7 11 30.36 1028 10 16.0934 0 0
11:15 am 11:15 Mostly Cloudy 75 23.7 68 20.2 81 81 E 8 13 30.36 1028 10 16.0934 0 0
11:35 am 11:35 Mostly Cloudy 75 24.1 70 20.9 82 82 ESE 8 13 30.33 1027 10 16.0934 0 0
11:55 am 11:55 Mostly Cloudy 76 24.7 69 20.8 79 79 ESE 6 9 30.33 1027 10 16.0934 0 0
12:15 pm 12:15 Mostly Cloudy 77 25 70 20.9 78 78 SE 7 11 30.33 1027 10 16.0934 0 0
12:35 pm 12:35 Partly Cloudy 77 25.2 69 20.4 75 75 SSE 5 7 30.33 1027 10 16.0934 0 0
12:55 pm 12:55 Partly Cloudy 78 25.7 69 20.6 74 74 SE 7 11 30.33 1027 10 16.0934 0 0
1:15 pm 13:15 Sunny 79 25.9 70 21 74 74 SE 5 7 30.3 1026 10 16.0934 0 0
1:35 pm 13:35 Partly Cloudy 80 26.5 70 20.9 71 71 Calm 30.3 1026 10 16.0934 0 0
1:55 pm 13:55 Partly Cloudy 80 26.6 70 20.9 71 71 ESE 3 6 30.27 1025 10 16.0934 0 0
2:15 pm 14:15 Partly Cloudy 79 26.2 70 21 73 73 SE 5 7 30.27 1025 10 16.0934 0 0
2:35 pm 14:35 Mostly Cloudy 80 26.7 69 20.7 70 70 ESE 5 7 30.27 1025 10 16.0934 0 0
2:55 pm 14:55 Partly Cloudy 80 26.8 70 21.1 71 71 ESE 5 7 30.21 1023 10 16.0934 0 0
3:15 pm 15:15 Partly Cloudy 80 26.9 70 21 70 70 ESE 3 6 30.21 1023 10 16.0934 0 0
3:35 pm 15:35 Partly Cloudy 81 27.1 70 21 69 69 ESE 6 9 30.21 1023 10 16.0934 0 0
3:55 pm 15:55 Mostly Cloudy 81 27.3 70 21.3 70 70 E 5 7 30.21 1023 10 16.0934 0 0
4:15 pm 16:15 Mostly Cloudy 82 27.6 71 21.4 69 69 E 6 9 30.18 1022 10 16.0934 0 0
4:35 pm 16:35 Partly Cloudy 82 28 71 21.4 67 67 ESE 9 15 30.18 1022 10 16.0934 0 0
4:55 pm 16:55 Partly Cloudy 82 27.9 70 20.9 66 66 ESE 9 15 30.18 1022 10 16.0934 0 0
5:15 pm 17:15 Partly Cloudy 82 28 70 21.1 66 66 ESE 7 11 30.18 1022 10 16.0934 0 0
5:35 pm 17:35 Partly Cloudy 81 27.2 70 21 69 69 ESE 5 7 30.15 1021 10 16.0934 0 0
5:55 pm 17:55 Mostly Cloudy 81 27.3 70 21.2 69 69 ESE 8 13 30.15 1021 10 16.0934 0 0
6:15 pm 18:15 Mostly Cloudy 81 27.1 72 22.3 75 75 ESE 8 13 30.15 1021 10 16.0934 0 0
6:35 pm 18:35 Partly Cloudy 81 27.3 70 21.3 70 70 E 8 13 30.15 1021 10 16.0934 0 0
6:55 pm 18:55 Sunny 81 27.3 72 22 73 73 ESE 9 15 30.15 1021 10 16.0934 0 0
7:15 pm 19:15 Sunny 81 27 71 21.6 72 72 ESE 9 15 30.15 1021 10 16.0934 0 0
7:35 pm 19:35 Sunny 80 26.7 71 21.8 75 75 E 10 17 30.15 1021 10 16.0934 0 0
7:55 pm 19:55 Sunny 80 26.5 72 22.3 78 78 ESE 8 13 30.12 1020 10 16.0934 0 0
8:15 pm 20:15 Sunny 79 26 73 22.5 81 81 ESE 7 11 30.12 1020 10 16.0934 0 0
8:35 pm 20:35 Sunny 78 25.4 73 22.5 84 84 ESE 8 13 30.18 1022 10 16.0934 0 0
8:55 pm 20:55 Sunny 76 24.5 73 22.6 89 89 ESE 7 11 30.15 1021 10 16.0934 0 0
9:15 pm 21:15 Clear 75 23.9 73 22.6 92 92 ESE 7 11 30.15 1021 10 16.0934 0 0
9:35 pm 21:35 Clear 74 23.5 73 22.5 94 94 E 7 11 30.15 1021 10 16.0934 0 0
9:55 pm 21:55 Partly Cloudy 74 23.2 73 22.5 96 96 ESE 6 9 30.15 1021 10 16.0934 0 0
10:15 pm 22:15 Partly Cloudy 73 22.7 72 22.1 96 96 E 5 7 30.15 1021 10 16.0934 0 0
10:35 pm 22:35 Clear 73 22.5 72 22 97 97 ESE 3 6 30.18 1022 10 16.0934 0 0
10:55 pm 22:55 Clear 73 22.5 72 22 97 97 SE 6 9 30.18 1022 10 16.0934 0 0
11:15 pm 23:15 Clear 72 22.2 71 21.6 96 96 SE 3 6 30.18 1022 10 16.0934 0 0
11:35 pm 23:35 Clear 71 21.8 71 21.4 98 98 SE 5 7 30.21 1023 10 16.0934 0 0
11:55 pm 23:55 Clear 71 21.6 70 21.1 97 97 SSE 3 6 30.21 1023 10 16.0934 0 0

Powered by AerisWeather